Wind_Speed
11 7 4 2 3 4 5 2 1 2 1 2 5 4 8 10 9 11 14 13 6 4 2 7 8 10 11 10 12 13 10 6 2 3 3 6 19 29 30 31 33 31 28 23 23 23 22 21 20 21 20 20 20 20 22 21 20 20 21 22 21 20 19 19 19 19 18 19 19 19 18 17 16 15 15 15 16 16 17 17 17 16 16 16 15 14 14 13 13 14 15 14 13 12 12 11 13
10 6 4 2 3 2 2 2 1 2 2 4 5 6 9 6 8 12 16 12 3 2 3 10 11 15 18 14 12 14 13 10 8 7 8 19 26 25 29 30 32 32 28 24 24 23 22 21 21 21 20 20 20 21 22 22 21 20 22 22 21 20 19 19 18 18 17 17 17 17 17 16 15 14 14 14 15 15 15 15 16 16 15 15 14 14 13 13 13 13 14 13 13 12 10 11 16
9 6 5 5 4 2 2 0 1 2 3 5 6 7 7 7 11 10 9 6 4 3 6 12 12 10 15 16 13 12 8 7 12 10 9 20 19 18 27 28 31 31 28 25 23 24 23 21 21 21 20 20 21 21 22 22 21 21 23 22 21 19 18 18 17 17 17 17 16 16 15 15 15 14 13 14 15 15 15 14 15 15 15 14 14 14 13 13 13 13 13 13 12 10 9 13 17
9 6 7 6 2 1 1 1 3 2 3 5 6 5 6 10 10 3 4 3 3 5 7 10 9 7 15 17 11 11 8 6 9 9 7 15 19 22 27 27 30 29 27 25 23 24 23 22 21 21 20 20 21 22 23 22 21 22 23 22 20 18 18 17 16 17 16 16 16 15 15 15 14 14 13 14 15 15 14 14 14 13 14 14 13 13 12 12 13 13 13 12 11 8 10 14 16
9 8 9 5 1 1 1 2 3 3 6 5 5 5 6 7 2 4 2 5 5 6 6 6 6 6 14 11 5 5 4 6 9 13 12 20 28 27 26 28 29 27 26 23 23 24 23 23 22 21 20 21 21 22 23 22 21 23 22 21 19 18 17 16 16 16 16 16 16 16 15 15 14 13 13 14 14 13 13 14 14 13 13 14 13 12 12 12 12 12 12 12 9 7 11 15 15
8 7 8 6 3 2 0 3 3 5 7 6 6 9 8 6 3 7 3 2 3 4 6 6 9 9 10 6 6 4 2 7 8 15 19 24 29 26 26 28 27 26 25 23 23 24 23 23 21 21 21 21 21 22 22 21 22 23 22 21 19 17 16 16 15 15 16 16 17 16 16 15 14 14 14 14 13 12 13 14 14 13 13 13 12 12 12 12 12 11 11 10 7 9 13 14 14
5 4 3 3 2 2 1 4 4 6 8 9 10 11 12 9 4 6 6 2 4 3 4 6 12 13 8 4 6 8 7 13 10 18 27 27 27 25 26 27 27 26 23 22 23 24 23 22 22 21 20 21 21 22 21 21 23 23 22 20 18 17 16 15 15 15 16 17 17 16 16 15 14 14 13 13 12 12 13 13 13 13 12 12 12 12 11 11 11 11 10 8 8 11 13 13 13
6 3 1 2 1 2 2 4 5 7 8 11 12 12 12 8 5 3 5 4 0 1 4 10 14 12 6 7 6 8 13 23 22 27 31 29 27 26 27 27 27 25 21 21 24 24 23 22 22 21 20 21 21 22 21 23 24 23 22 19 18 17 16 15 15 15 16 16 15 15 15 15 14 14 13 13 12 12 12 12 12 11 11 11 11 12 11 10 9 9 8 7 9 10 11 11 12
7 3 1 1 2 3 3 5 6 9 11 13 14 12 8 3 3 3 3 3 2 1 3 10 13 10 6 12 8 5 14 27 30 30 30 28 28 28 27 28 27 25 22 22 25 24 23 22 22 21 21 21 21 22 22 24 24 23 21 19 18 17 17 16 15 15 14 14 14 14 14 14 14 13 13 13 13 12 11 11 11 10 10 10 10 11 10 8 7 7 7 7 8 8 8 9 11
4 4 1 1 2 4 4 5 6 9 12 13 15 11 5 2 3 4 3 3 2 2 7 12 12 11 10 10 6 2 12 26 30 26 27 25 24 27 27 28 28 25 24 24 26 25 23 22 22 21 21 21 21 22 23 25 24 22 20 19 18 17 17 16 15 14 13 14 14 14 13 13 14 13 13 13 13 11 10 10 10 10 9 9 8 10 10 8 7 6 6 7 7 6 5 6 8
1 3 2 2 3 4 5 6 7 9 11 12 13 9 6 4 4 4 2 2 2 2 8 13 10 12 11 7 3 4 15 24 27 24 23 21 21 25 27 30 28 25 25 26 26 25 23 22 22 21 21 21 22 23 24 24 23 21 20 19 18 18 17 16 15 14 13 13 13 14 14 14 13 14 13 12 12 10 10 10 9 9 8 8 7 7 8 8 7 6 5 6 6 5 3 3 5
2 3 2 2 3 4 6 6 8 10 9 11 11 6 5 6 5 4 2 1 1 3 2 9 9 10 10 5 2 6 14 19 23 24 22 21 22 25 29 31 28 26 27 28 28 25 24 24 22 21 21 22 23 24 23 23 22 20 19 19 18 18 17 16 14 13 13 13 14 14 14 13 13 14 13 12 11 11 11 10 9 9 8 8 7 6 6 7 7 6 5 4 5 4 4 3 3
3 4 2 3 4 4 6 7 8 8 7 8 7 4 5 6 5 4 5 2 1 4 2 11 14 10 8 4 4 5 9 15 22 23 20 21 24 27 30 30 29 28 28 29 29 27 26 25 24 23 22 23 23 23 21 21 21 20 20 19 19 18 17 15 14 13 14 14 15 15 14 13 13 13 12 12 11 11 11 10 9 8 7 6 5 4 5 7 6 6 5 3 3 3 4 2 3
4 4 2 4 4 5 6 7 7 7 5 5 3 2 3 4 3 3 5 4 4 1 5 12 11 11 8 5 5 4 7 16 22 22 20 22 26 30 30 29 29 28 28 30 29 27 27 26 25 24 24 24 23 22 20 19 20 20 20 21 20 18 17 16 14 14 15 15 15 15 14 13 13 13 12 12 12 11 11 10 8 7 6 5 3 2 3 4 4 4 4 3 2 2 2 1 1
5 3 3 4 4 5 5 7 7 6 5 4 2 1 2 2 3 6 7 5 6 7 10 7 3 7 7 7 6 6 12 20 23 22 21 24 29 31 31 29 28 28 28 29 28 26 25 25 24 23 24 24 23 22 21 20 20 21 21 21 19 17 16 17 16 15 16 16 16 15 14 13 14 13 12 12 11 11 10 10 8 6 6 5 3 2 2 2 2 2 1 1 1 1 0 1 1
5 2 3 4 5 6 5 7 7 6 6 5 2 1 2 3 3 5 3 2 6 10 10 6 4 5 9 7 11 15 19 24 25 24 24 28 30 30 28 27 28 28 27 28 27 25 25 25 25 24 25 23 23 22 22 22 21 21 22 20 18 16 16 17 18 17 16 15 15 15 14 13 13 13 12 11 10 10 10 10 8 7 7 7 5 3 4 4 3 3 1 1 2 2 1 1 3
4 4 4 4 5 6 6 6 6 4 3 4 5 6 4 3 3 2 4 7 11 11 11 8 6 6 8 10 20 25 25 26 27 26 27 26 26 26 24 24 27 26 25 27 28 26 26 26 26 26 25 24 23 22 22 22 22 21 20 18 16 16 16 16 17 17 16 15 15 14 13 12 12 12 12 12 10 9 9 9 7 7 8 7 5 5 6 6 6 5 3 1 1 3 3 4 5
4 3 5 5 6 7 8 9 7 3 3 4 5 7 6 3 4 2 2 10 14 13 11 12 12 11 13 20 28 27 25 27 27 26 24 21 21 21 19 21 24 24 26 28 28 27 26 25 26 26 25 24 23 22 23 23 22 20 19 17 16 16 16 16 16 16 15 15 14 13 12 12 11 11 11 12 11 9 8 8 7 8 7 5 5 6 6 7 7 6 4 3 2 4 5 6 5
4 3 5 5 7 9 10 11 11 8 3 2 5 6 5 4 4 2 2 7 11 12 10 14 15 13 15 20 24 25 25 25 23 23 20 18 19 18 18 20 21 23 25 27 29 27 25 25 25 25 26 26 24 23 23 23 22 20 18 17 17 17 16 16 16 16 15 14 14 13 13 12 11 11 10 11 10 8 8 8 7 7 5 4 4 4 5 6 6 5 5 4 4 5 5 6 4
5 4 4 6 8 10 13 13 13 12 5 1 4 2 2 3 1 2 4 8 11 10 7 11 13 12 13 14 18 21 21 20 20 20 18 18 19 19 19 19 20 22 25 27 28 27 25 25 25 24 26 27 26 24 24 23 21 19 18 17 18 18 17 16 16 15 15 14 14 13 13 12 12 12 12 11 10 8 9 8 7 6 4 3 2 2 3 5 5 4 6 7 6 6 6 6 4
4 5 6 8 8 10 14 13 13 12 5 2 3 2 1 4 2 2 6 8 9 7 6 9 13 13 13 13 13 15 15 15 16 15 16 17 18 18 18 20 21 23 25 26 26 26 24 24 26 25 25 26 26 26 25 24 22 20 19 18 19 19 18 17 16 16 15 15 15 14 13 11 11 12 12 11 10 9 9 9 7 5 3 3 1 1 2 3 4 4 6 7 6 5 5 3 1
4 6 9 12 10 12 15 11 12 9 7 6 5 4 4 6 5 3 3 4 5 6 9 12 14 13 14 13 11 11 11 11 11 15 16 15 17 18 18 21 23 23 24 24 25 26 25 24 26 26 26 26 27 27 26 24 23 22 21 20 20 19 19 18 17 16 16 16 15 13 12 11 10 10 11 11 10 10 10 9 7 5 4 4 3 2 2 2 1 3 5 4 2 2 1 0 2
6 6 8 12 11 13 14 11 10 6 5 6 7 6 6 7 5 4 1 6 8 9 11 12 14 14 13 13 11 10 11 9 10 15 16 16 17 20 21 22 24 24 24 25 25 25 26 26 27 28 28 29 28 28 26 25 23 22 22 21 21 19 18 17 16 16 16 16 14 12 11 10 10 10 10 11 10 10 10 9 7 6 5 4 4 4 4 5 5 2 3 2 2 3 2 2 4
9 8 8 10 11 12 12 12 10 3 1 2 4 7 9 6 4 4 4 9 12 11 10 10 14 15 13 12 11 11 11 10 13 16 17 16 17 21 23 23 24 24 25 25 24 26 28 27 28 29 29 30 29 28 26 25 24 23 22 21 21 18 17 16 15 15 16 14 12 11 10 10 10 10 10 10 9 8 8 8 7 6 5 5 5 6 5 5 4 3 2 3 3 4 2 2 4
9 9 10 9 10 12 11 11 10 5 3 4 3 4 9 7 3 4 4 11 11 13 11 10 14 14 13 12 11 10 10 13 14 13 12 11 14 20 23 23 24 26 26 26 26 27 29 29 29 29 29 29 28 27 26 25 24 23 22 21 19 17 16 16 14 14 14 12 10 10 10 10 10 10 10 9 8 8 7 7 7 7 6 5 6 7 7 6 3 3 2 3 3 2 1 4 5
7 9 10 10 10 12 11 12 12 7 3 6 6 6 9 6 4 4 4 12 11 14 14 11 13 12 11 11 10 10 13 16 12 11 11 9 10 13 17 22 25 26 27 28 28 28 29 29 29 29 29 28 28 27 25 24 23 22 22 21 18 16 15 15 13 12 13 11 11 11 10 10 9 9 9 9 8 7 7 6 7 7 7 7 7 7 7 5 4 4 2 2 2 1 2 5 6
7 9 10 11 12 11 10 13 12 7 3 5 4 4 8 5 2 2 3 11 12 15 15 13 14 12 11 10 9 10 15 16 14 14 13 12 13 9 11 20 23 25 29 29 28 30 31 30 29 30 29 28 27 26 24 22 22 22 22 20 17 16 15 15 14 12 12 11 10 10 8 9 10 9 9 8 7 7 6 5 6 7 8 7 5 5 5 3 3 3 2 1 2 3 3 4 8
9 10 10 11 12 11 12 13 11 7 3 3 2 4 7 4 4 5 6 8 14 15 15 15 14 12 12 10 8 10 12 16 19 15 12 14 18 13 11 19 25 25 29 29 29 32 32 30 29 29 28 27 26 24 24 22 21 22 22 20 17 16 15 15 15 12 11 10 10 9 7 8 9 9 9 7 6 6 5 5 6 7 7 6 4 4 4 2 2 3 2 1 1 2 1 4 11
10 10 10 11 10 9 11 9 9 8 4 5 4 5 8 5 5 9 10 8 12 15 14 14 14 12 11 9 8 8 10 16 17 15 16 16 21 18 12 17 27 26 28 30 32 33 31 29 29 28 28 27 26 25 24 23 22 21 21 20 18 17 16 16 15 12 10 9 9 10 8 8 9 9 8 7 6 5 4 5 6 6 5 5 4 5 4 2 2 2 2 1 2 2 3 6 12
7 7 6 7 7 7 6 4 7 9 5 7 6 4 7 8 8 9 10 10 10 13 14 13 13 11 10 9 8 8 10 13 13 17 23 20 21 22 14 17 26 27 29 32 33 33 30 28 27 27 28 26 25 24 23 22 21 20 20 20 19 17 16 15 14 12 9 8 9 9 8 8 9 9 8 7 7 6 6 6 5 4 4 4 5 5 5 3 2 2 1 2 3 4 5 7 12
5 5 4 4 5 5 5 4 7 8 6 9 8 4 6 8 9 11 9 10 9 10 14 14 12 11 10 9 10 10 10 11 14 20 24 20 21 21 16 17 23 27 31 33 34 32 29 27 27 28 27 24 24 23 22 21 20 20 19 19 18 17 16 14 13 13 10 9 8 8 8 7 9 9 9 9 8 7 6 6 5 5 5 5 5 6 5 4 3 2 1 3 4 4 7 9 11
3 4 5 4 5 5 6 7 8 9 7 10 9 4 6 7 9 11 9 10 10 9 14 14 12 13 12 9 10 11 10 13 17 20 20 21 21 20 18 17 19 28 33 33 33 30 27 26 27 30 27 24 24 23 22 21 20 19 18 17 17 16 16 15 14 13 11 9 8 7 8 8 9 9 9 9 8 8 7 6 7 7 7 6 6 7 6 5 4 2 3 3 4 5 8 11 12
3 4 5 4 5 5 5 8 10 12 9 9 11 5 4 5 8 11 9 12 11 9 13 14 14 13 12 8 8 10 10 12 14 18 21 23 24 24 25 21 19 28 32 32 33 30 27 27 29 30 27 24 24 22 21 20 20 19 17 17 17 16 16 15 14 12 11 11 9 8 8 9 9 9 9 9 8 9 9 8 8 7 8 7 7 7 6 6 4 3 4 4 6 7 10 12 13
4 4 5 5 6 5 4 6 9 14 12 9 11 8 6 5 9 13 10 13 13 10 12 16 16 12 10 9 9 10 11 12 12 16 22 25 25 26 27 23 21 28 32 31 31 27 27 28 29 27 25 23 22 21 21 20 20 19 17 17 18 17 15 14 13 12 11 11 9 8 9 10 10 10 10 9 10 11 10 9 9 9 9 8 7 7 7 7 5 5 6 7 9 10 11 13 13
5 6 5 5 8 8 8 8 7 12 13 11 11 10 10 8 10 12 9 11 13 10 12 16 16 12 11 10 9 10 12 12 12 17 23 25 25 26 25 20 21 28 31 26 23 22 23 25 24 20 20 20 20 22 22 20 20 19 18 17 17 16 14 13 13 12 11 10 9 9 11 11 10 11 10 11 11 11 11 11 10 10 9 8 6 6 6 7 7 7 8 10 11 9 10 12 13
10 11 7 6 7 8 11 12 11 12 10 12 12 10 12 12 11 12 10 7 6 8 9 14 14 11 11 10 9 11 12 11 13 20 25 25 24 27 25 20 20 24 24 23 21 22 23 22 21 18 18 18 19 22 23 21 20 19 18 18 17 16 16 15 14 13 13 11 9 9 10 10 10 10 9 10 10 10 11 10 10 10 8 7 5 5 5 7 8 8 8 9 10 9 10 11 12
11 10 8 8 6 6 10 12 14 13 8 13 15 11 12 15 13 12 12 7 6 9 11 13 13 13 12 12 11 11 11 11 14 20 24 23 23 27 26 23 22 20 21 25 23 23 26 24 23 21 20 21 21 22 24 22 21 21 20 20 20 18 17 16 15 15 14 11 8 8 8 8 9 9 7 7 7 9 9 9 10 10 9 8 6 5 5 6 8 8 8 9 9 10 12 12 11
11 8 7 8 7 7 10 13 14 12 6 10 14 10 10 14 12 12 11 9 9 9 13 13 15 14 11 12 12 11 11 10 14 16 18 21 22 24 26 25 24 21 24 27 20 23 27 24 24 23 20 22 21 20 23 22 21 22 21 22 22 19 17 18 18 17 16 13 10 8 8 7 7 6 6 5 5 7 9 9 10 10 9 8 6 6 6 6 8 8 8 10 10 10 11 12 13
9 6 6 6 7 7 10 15 15 9 5 9 14 10 8 10 12 12 10 8 7 7 11 12 15 16 11 12 12 12 13 12 12 12 13 17 20 21 24 23 22 24 26 23 18 21 25 23 23 23 21 21 20 19 21 21 21 22 21 22 22 21 19 18 18 17 16 14 11 9 8 6 5 5 5 5 5 8 9 9 10 9 8 7 7 8 6 6 8 7 7 9 11 11 10 11 11
8 6 5 6 8 6 6 10 9 4 0 7 10 6 4 6 8 10 8 7 8 9 10 10 14 16 15 15 15 15 16 14 13 12 10 12 15 17 20 19 19 22 22 20 18 22 27 25 25 26 23 20 18 18 21 21 20 19 19 21 21 21 20 18 15 14 15 14 12 11 9 6 5 5 5 5 5 8 9 9 9 9 8 7 8 8 7 7 8 8 6 7 11 12 10 9 8
6 7 6 5 8 8 6 7 9 7 4 5 7 4 4 4 3 5 6 3 7 9 9 8 8 11 12 14 14 15 16 15 15 13 9 8 10 11 14 18 23 25 24 21 24 26 29 28 26 27 24 19 17 18 21 20 19 20 22 24 23 22 21 20 18 17 17 15 13 12 11 8 6 7 7 6 6 7 8 7 7 8 8 8 7 7 8 7 8 8 7 7 9 11 10 10 8
4 5 7 6 10 12 9 10 9 6 6 3 6 4 5 5 2 5 6 4 6 7 7 8 6 9 13 13 12 11 12 13 13 11 9 7 7 9 11 19 27 30 28 28 27 26 28 28 28 28 24 19 18 19 20 20 21 24 26 25 25 23 20 19 19 18 19 17 14 12 12 10 7 7 8 8 7 7 6 5 5 6 6 6 5 6 6 7 8 9 7 8 9 9 9 11 11
3 4 5 7 11 13 10 9 6 2 3 3 4 4 3 5 5 7 6 6 8 7 8 9 7 9 12 12 10 10 10 10 11 12 10 7 7 8 10 17 25 27 24 24 26 25 26 28 28 28 24 19 20 21 20 20 21 21 21 21 22 22 20 18 17 17 19 18 15 13 14 12 9 10 9 7 6 5 4 4 2 3 4 4 4 4 4 5 7 7 6 8 9 8 8 10 11
4 4 6 10 10 12 10 5 5 4 4 3 2 5 2 3 5 8 7 7 6 5 8 7 7 11 12 11 11 11 11 12 12 11 10 11 12 14 12 17 21 18 16 19 25 28 27 27 26 26 25 22 22 22 21 20 19 19 20 20 20 21 20 19 18 18 19 18 15 14 14 12 10 9 7 6 5 4 3 3 1 3 4 4 4 4 3 3 5 5 6 8 7 7 7 8 9
5 5 8 11 10 12 10 5 6 4 2 2 3 4 3 3 6 7 7 7 4 4 8 7 11 13 12 13 13 13 14 14 13 11 10 12 14 14 14 20 21 21 22 22 24 26 26 25 24 25 26 25 24 24 22 21 20 20 20 19 20 21 20 19 20 20 18 16 14 14 14 12 10 8 7 7 7 5 4 4 3 2 4 7 6 6 5 5 7 6 7 9 7 7 7 7 8
6 7 9 10 9 9 7 5 5 1 3 4 5 3 2 4 6 5 5 6 6 6 5 8 12 13 15 16 14 13 12 10 11 12 11 13 18 22 22 24 27 29 27 23 21 21 21 21 23 26 26 26 26 24 23 22 22 21 19 20 23 23 21 19 19 18 17 15 14 15 15 13 11 10 8 7 7 5 4 4 3 6 6 9 9 7 7 7 8 7 7 9 8 8 8 7 7
7 7 7 7 7 6 5 5 4 3 1 5 5 3 4 3 5 4 3 4 6 6 6 8 12 16 18 15 13 12 11 9 11 12 12 13 19 25 28 28 29 31 28 24 23 21 21 23 25 28 27 27 27 25 23 23 23 20 18 21 24 23 20 19 18 18 17 15 15 15 13 11 11 10 8 8 8 8 5 4 4 7 9 10 8 7 8 8 8 7 7 8 8 8 9 8 8
6 5 5 4 5 4 4 2 4 3 4 5 5 4 5 3 5 4 1 6 2 6 10 10 14 19 17 13 12 11 10 11 12 12 12 13 14 18 24 26 29 32 29 26 26 25 26 28 29 30 29 28 27 26 24 24 23 19 18 22 23 21 20 19 19 19 17 15 15 14 12 12 12 10 8 8 10 9 7 6 7 7 9 8 7 7 9 8 8 8 8 9 10 10 12 12 10
6 6 4 3 2 3 3 2 3 3 4 5 6 4 4 4 3 3 5 10 9 6 11 13 17 22 18 12 12 11 9 11 11 11 10 11 11 11 17 23 27 33 35 32 32 33 33 34 34 33 32 31 28 27 26 26 24 20 20 23 22 21 20 18 18 17 16 15 14 14 14 15 13 11 10 9 9 8 7 8 8 8 8 7 7 9 10 9 8 9 9 9 10 12 14 13 12
6 5 4 3 1 0 2 3 1 2 3 4 5 4 4 2 1 4 8 10 10 10 9 12 18 23 19 13 12 11 10 9 8 9 8 8 10 9 12 16 15 23 37 35 30 31 32 35 35 34 33 32 29 28 27 26 23 19 22 24 22 21 20 17 16 16 15 14 14 14 15 15 14 13 12 10 9 8 7 8 9 9 8 6 7 10 10 9 10 11 11 11 11 12 14 13 12
4 4 5 5 4 4 3 2 1 2 3 4 2 3 2 2 2 2 10 11 11 12 12 15 19 18 17 13 12 12 10 8 7 8 8 7 9 11 13 15 13 17 28 24 17 19 22 25 25 23 24 25 25 26 26 25 21 17 21 24 22 21 19 17 16 16 14 13 13 12 14 15 16 15 15 12 10 9 8 9 9 8 10 8 9 11 12 12 13 12 13 14 14 14 14 13 12
2 1 3 4 4 5 3 2 3 3 1 3 0 2 2 2 2 3 12 12 12 13 15 18 18 14 14 13 11 10 9 8 7 7 6 6 10 12 13 15 16 15 19 18 16 17 16 18 16 13 15 20 22 24 25 23 19 16 21 24 22 21 19 18 17 15 14 13 11 11 15 18 18 17 16 13 10 9 8 9 8 9 11 10 10 13 15 15 15 13 13 14 14 14 14 14 13
2 1 2 6 6 7 4 1 2 2 2 3 0 3 2 1 2 5 11 12 12 13 14 16 15 14 14 12 10 10 7 7 7 7 5 4 8 10 10 11 14 14 19 21 21 20 18 17 15 12 15 19 21 22 22 20 16 15 20 22 21 21 20 19 19 16 15 15 12 13 17 18 18 16 13 11 10 10 10 11 11 11 11 10 10 13 15 15 14 12 12 13 14 14 15 14 14
3 2 4 3 0 4 4 2 1 2 1 3 2 5 1 2 1 3 9 11 9 11 12 12 12 13 13 11 11 10 8 8 8 8 7 4 5 8 10 12 13 15 20 23 21 17 14 14 14 14 16 18 20 19 18 17 14 14 18 20 19 20 19 19 20 18 16 16 14 15 18 17 15 13 12 12 13 14 14 14 13 12 11 11 11 12 14 14 14 13 13 13 14 15 15 14 13
6 4 3 1 2 1 1 2 3 2 2 2 1 4 2 2 1 3 5 7 7 10 11 11 10 11 13 13 12 11 10 9 8 9 8 6 6 8 10 12 13 15 17 19 18 16 12 10 13 15 15 17 18 16 15 16 15 16 19 18 18 19 18 18 19 19 17 16 15 16 17 16 13 12 14 16 16 16 16 15 14 12 12 12 11 12 13 13 13 14 15 15 14 15 15 16 16
5 3 1 2 3 3 1 2 3 3 3 2 2 2 2 1 3 2 3 6 7 9 9 9 9 10 12 11 10 10 9 8 8 9 8 7 8 9 10 12 13 14 14 15 17 19 16 10 10 13 14 15 16 15 14 14 14 16 18 18 18 18 18 19 19 18 17 16 15 16 16 15 14 15 16 17 16 16 16 15 14 13 13 14 13 12 12 13 15 15 15 15 15 14 16 18 17
4 3 3 2 2 2 2 1 2 4 3 2 2 0 3 4 4 3 5 6 6 8 9 9 8 9 10 8 8 8 7 8 8 8 7 7 9 12 13 13 14 12 11 11 11 12 12 9 9 11 12 13 14 14 15 14 14 15 16 15 18 18 17 19 19 16 16 16 14 15 16 15 16 17 17 17 16 16 15 15 15 13 14 15 13 13 13 14 16 16 15 16 16 17 18 19 18
2 1 3 3 3 3 2 2 3 3 3 3 4 2 3 4 2 4 6 6 7 7 8 9 8 8 8 6 6 6 6 7 7 7 7 6 8 11 13 14 13 11 9 9 10 9 7 7 8 8 10 12 11 12 16 17 14 14 14 11 13 18 19 18 17 16 15 16 15 16 16 16 17 17 17 17 16 16 15 15 15 14 15 14 13 14 14 14 16 16 16 17 17 19 20 20 18
Wind_Direction
216 219 231 284 298 320 309 239 116 258 187 266 253 241 246 232 238 267 269 273 289 290 44 84 67 74 85 87 93 75 50 35 59 107 117 125 107 117 130 135 139 143 142 140 140 140 141 142 143 141 141 144 145 145 143 141 141 142 139 137 136 133 125 117 113 112 114 117 120 120 119 117 115 112 108 106 105 105 106 107 106 104 103 100 98 94 93 93 92 94 95 95 91 88 84 87 102
207 225 237 276 292 318 288 184 140 237 155 265 246 228 252 251 242 253 261 264 258 263 55 71 69 84 93 89 82 70 54 42 63 82 101 112 104 109 126 134 139 141 141 141 139 138 139 141 142 140 140 143 145 146 143 142 143 143 140 138 137 132 124 118 115 115 118 121 123 123 122 119 116 113 110 107 105 104 104 106 108 108 107 105 103 100 97 95 93 93 96 96 91 90 86 94 110
212 244 271 276 262 226 285 276 213 226 159 239 247 234 260 271 249 257 279 250 178 110 66 64 56 66 82 75 63 68 78 67 79 89 106 110 101 114 128 134 138 138 139 140 139 137 138 141 142 139 140 143 144 146 143 143 143 143 141 139 137 130 124 120 115 116 120 124 127 125 124 120 115 112 109 107 106 105 104 105 106 108 107 106 105 104 102 98 94 93 96 96 93 92 92 103 114
223 237 267 278 269 209 299 237 198 218 206 235 256 245 244 251 243 257 344 5 22 49 62 69 58 42 73 79 75 75 82 84 94 102 104 106 114 127 128 132 134 134 136 137 139 137 137 141 140 138 141 142 144 145 143 144 144 143 142 141 137 129 124 121 117 117 119 123 127 127 127 122 116 112 112 111 108 108 110 109 108 108 107 107 106 107 106 100 96 96 97 97 95 95 97 108 117
234 232 253 262 272 234 179 240 202 201 228 236 268 274 261 259 169 119 359 4 356 32 49 84 97 55 68 70 76 82 72 78 87 94 93 109 123 127 126 131 130 129 131 134 137 135 137 140 139 139 141 141 142 143 144 146 146 144 144 142 137 131 127 122 120 118 119 122 123 126 128 125 119 117 118 117 115 115 114 111 112 110 106 109 112 115 113 106 101 99 100 100 95 93 98 109 118
238 250 256 242 256 299 264 257 240 234 237 233 261 272 276 297 103 125 105 17 344 49 51 77 108 90 76 58 60 53 95 113 92 100 108 118 125 125 126 129 126 125 129 134 135 134 137 140 140 140 140 139 140 141 144 147 147 146 146 144 139 134 130 125 122 121 122 121 123 126 129 127 126 126 125 123 123 122 115 111 113 110 108 112 115 117 112 109 106 104 109 104 91 89 100 111 118
233 273 262 211 260 287 240 257 257 260 249 235 245 254 259 263 208 135 118 95 348 48 78 87 105 95 88 99 71 21 71 118 107 116 124 125 125 123 127 128 123 125 130 134 134 134 138 141 138 137 139 139 142 143 145 149 148 148 148 146 142 139 133 128 127 127 125 123 125 127 128 129 131 132 128 125 124 126 122 119 118 118 117 115 116 115 113 115 114 116 119 104 92 94 101 110 117
232 261 304 160 251 237 218 257 257 262 262 256 255 263 261 229 189 128 123 140 60 127 121 112 100 86 72 90 93 16 70 110 112 120 126 126 127 125 129 128 123 125 129 133 133 134 137 139 136 135 138 141 145 147 149 151 150 149 150 147 144 142 136 133 133 131 128 125 126 125 128 130 134 134 128 123 122 124 124 125 125 124 121 115 120 121 120 126 125 126 123 103 101 102 103 111 119
226 218 303 205 220 253 245 252 251 255 260 263 263 269 272 209 133 67 56 82 130 218 127 123 102 98 100 83 93 34 75 109 116 122 127 128 130 130 133 130 126 127 129 132 133 134 137 137 135 135 138 144 148 150 151 151 151 151 150 148 145 142 140 139 138 136 132 127 127 128 130 131 135 134 128 123 119 120 120 123 124 124 124 122 129 129 127 132 134 133 126 115 115 114 109 113 122
209 188 257 265 216 255 257 254 250 253 254 257 259 250 229 171 101 81 24 19 67 3 82 98 90 106 113 88 89 62 94 113 118 123 129 129 130 133 134 131 132 133 130 133 134 132 135 136 134 136 140 146 149 149 151 152 153 152 149 147 145 144 144 144 141 139 134 130 129 130 134 135 133 128 125 123 118 116 118 121 123 125 124 120 128 135 137 140 138 135 128 122 128 133 121 111 119
200 198 206 278 251 249 246 256 253 257 257 257 259 233 187 136 107 99 44 342 353 357 96 92 90 107 101 89 88 112 112 114 117 121 126 124 127 131 127 128 137 137 132 134 132 131 135 135 135 139 145 148 148 149 152 154 154 152 148 147 147 148 147 145 144 141 136 134 134 133 137 137 131 125 121 120 117 116 122 123 120 122 118 113 120 133 145 150 150 147 135 126 133 139 129 103 109
245 228 168 228 234 236 241 254 258 264 266 263 261 221 169 124 115 131 140 226 68 291 196 119 128 121 103 101 126 127 114 114 118 121 124 121 122 124 122 127 133 132 133 134 131 133 135 134 138 143 149 149 149 152 155 156 154 150 149 149 150 149 147 147 145 141 139 139 138 136 139 139 131 124 119 118 119 121 124 124 118 117 116 114 119 129 145 160 166 166 156 135 127 125 123 93 78
234 237 181 231 230 234 251 257 263 274 281 275 260 183 157 127 128 160 157 160 74 290 281 128 140 118 102 123 131 131 117 122 123 122 127 121 118 119 121 124 126 127 131 132 131 133 134 137 145 146 147 149 150 152 155 155 152 152 152 152 150 149 149 148 143 138 139 141 139 136 138 139 134 129 124 125 128 128 126 122 118 115 112 110 114 127 137 154 165 164 162 153 126 126 127 84 59
217 241 214 252 260 251 257 259 266 277 282 289 290 147 137 116 119 98 97 60 22 324 90 112 131 102 104 138 130 151 143 136 128 124 127 122 120 118 119 121 122 125 128 131 130 131 136 144 151 150 149 150 151 152 154 156 153 155 157 155 153 152 151 147 142 139 138 140 139 137 140 145 147 144 139 136 135 131 127 120 113 103 94 86 97 127 137 147 158 155 156 156 141 137 130 66 75
205 245 237 258 272 268 265 260 267 272 263 263 300 76 78 68 97 65 59 58 55 83 83 72 62 92 140 160 148 173 157 143 133 126 123 121 120 117 117 117 119 123 126 131 131 134 142 151 156 156 155 154 154 154 156 159 156 158 159 157 156 154 153 148 143 141 138 141 142 141 145 151 153 150 143 138 133 129 127 119 108 92 77 67 71 82 108 122 129 122 132 158 164 167 351 280 149
201 233 248 263 267 268 268 264 274 272 263 259 279 341 82 86 103 90 82 89 64 63 65 42 11 120 157 158 147 156 153 144 136 129 123 119 118 115 111 110 116 120 124 130 135 142 150 156 161 160 160 160 160 159 160 159 157 159 159 158 157 155 155 150 145 143 141 143 146 146 149 151 153 151 145 137 133 134 129 117 103 85 72 68 70 75 86 88 82 79 86 222 263 250 239 187 155
202 218 242 268 263 261 265 262 268 265 288 324 343 7 41 94 89 125 126 88 77 69 61 52 47 103 127 125 135 144 146 141 137 130 124 121 117 108 102 107 116 118 124 134 142 150 156 160 162 163 164 165 164 162 159 156 157 159 157 156 156 157 155 152 146 143 144 148 149 149 150 152 156 154 146 137 137 140 126 110 100 85 75 70 75 83 82 81 83 82 87 122 220 209 188 172 158
210 202 225 245 250 253 259 256 268 302 25 350 350 24 15 41 61 359 87 95 95 87 74 69 61 71 95 114 129 137 140 140 139 132 127 128 118 106 108 121 123 120 127 137 146 154 159 161 163 165 167 168 166 163 159 157 159 159 155 155 156 157 155 152 147 146 150 155 154 152 153 154 157 153 145 139 139 137 116 104 97 84 76 71 76 87 83 80 85 89 96 109 148 170 172 168 162
219 207 218 229 242 252 261 268 286 304 324 354 22 39 347 358 70 25 55 100 98 90 89 87 81 83 96 113 126 133 138 141 142 137 133 127 119 121 132 135 127 125 131 137 148 157 161 163 165 166 169 172 170 167 165 162 162 160 157 157 157 155 154 152 149 153 159 161 158 157 157 156 155 149 142 137 136 129 111 103 98 88 82 79 76 83 84 83 86 99 109 111 124 138 147 149 145
224 215 230 240 240 253 262 268 279 284 281 68 69 71 297 330 102 157 91 84 86 97 107 101 106 112 114 120 126 134 139 143 147 140 131 122 124 137 144 142 132 134 142 144 151 160 164 165 169 171 172 173 172 172 170 168 167 164 162 161 159 155 153 154 156 161 165 164 163 162 162 160 156 148 142 141 141 131 116 110 103 96 95 91 80 75 87 91 97 114 119 117 120 125 129 127 116
219 208 225 251 250 262 261 260 276 291 326 67 122 112 325 305 285 113 90 84 91 113 119 119 129 131 131 132 132 139 138 147 149 126 115 122 133 142 144 142 138 142 149 150 158 165 168 170 171 172 172 172 174 176 174 173 172 169 166 162 160 159 159 161 164 167 168 168 167 167 167 165 162 154 148 148 147 136 123 117 113 116 121 116 122 102 104 105 111 132 135 128 124 129 132 136 131
238 230 224 242 251 266 268 276 294 315 2 22 34 32 357 329 333 29 76 123 143 144 132 133 139 140 141 139 139 141 141 157 140 108 115 135 141 141 139 137 136 142 149 152 160 168 175 176 172 171 172 173 176 178 177 175 175 172 167 163 163 163 165 167 169 169 170 170 171 172 169 169 167 158 153 154 152 143 132 129 132 150 156 153 180 195 200 242 242 148 156 154 153 175 168 228 310
237 255 235 236 238 252 269 284 291 316 6 16 10 341 342 354 339 320 341 140 152 149 138 136 139 143 140 136 143 147 151 155 117 114 137 148 146 140 139 138 136 141 145 148 155 166 174 175 174 173 172 174 176 179 179 175 173 171 167 167 167 166 168 170 170 171 172 171 173 175 173 175 172 162 159 161 162 154 146 145 153 168 175 185 214 231 231 252 268 250 200 197 232 242 259 310 327
233 249 248 247 245 250 263 270 266 262 26 64 26 332 326 322 293 318 43 119 138 145 143 135 136 139 137 139 149 154 152 127 108 128 145 149 146 139 139 139 138 141 142 147 155 163 169 170 170 170 170 174 177 178 178 174 169 167 167 169 169 167 171 174 173 173 174 174 174 177 179 181 174 167 165 167 169 165 161 162 171 185 192 209 239 251 249 253 266 278 239 217 246 256 271 342 354
241 241 245 250 254 260 266 274 270 242 169 126 115 294 294 290 310 338 90 123 131 138 143 135 131 134 138 147 153 154 133 99 102 128 143 146 139 135 138 137 138 142 144 151 158 163 169 169 167 168 171 174 176 176 176 171 166 166 168 169 169 169 173 176 176 175 177 180 181 182 184 183 175 170 169 174 180 178 176 178 188 201 206 221 240 246 250 254 271 319 285 244 274 269 307 5 9
248 245 245 242 248 258 264 273 276 269 203 147 157 209 261 286 20 342 150 139 129 129 137 133 129 135 139 147 157 145 111 100 113 144 154 142 116 126 137 138 141 142 146 153 158 164 167 166 167 169 170 170 170 171 171 168 165 167 168 169 172 173 176 177 175 175 180 185 185 186 188 186 178 174 173 176 187 192 194 199 205 212 216 223 231 231 240 254 281 319 305 241 315 340 356 11 18
261 259 255 242 243 250 255 261 267 281 250 152 152 201 243 252 114 300 202 153 143 134 140 140 137 144 146 151 154 125 108 120 145 153 149 126 111 138 156 145 144 142 145 151 155 162 163 162 166 166 164 162 164 169 170 168 168 170 170 170 175 178 179 175 172 175 183 188 189 189 190 189 182 178 178 176 188 199 200 200 199 207 212 212 211 214 225 249 296 330 331 239 333 6 8 22 37
277 283 284 261 251 251 249 253 265 287 266 159 164 253 254 243 170 228 238 171 154 148 149 149 149 150 151 153 138 113 111 136 150 144 141 132 133 167 193 155 147 145 147 150 152 158 161 162 163 162 160 160 164 170 171 169 170 173 173 173 176 178 174 170 172 176 181 188 192 191 188 189 188 183 179 178 190 197 194 189 192 203 204 192 194 216 234 257 313 342 346 318 350 25 66 54 53
276 283 288 281 277 262 245 243 265 279 243 164 173 247 256 248 207 216 231 207 166 159 162 157 152 151 149 147 129 114 123 141 147 138 143 149 145 165 200 165 151 149 150 151 152 155 158 159 161 161 161 162 165 169 170 168 168 173 176 176 175 174 172 169 175 178 180 188 190 191 193 191 192 191 180 183 197 195 192 197 198 199 188 188 210 233 251 271 308 320 325 62 70 72 104 80 68
270 273 271 282 297 279 251 226 256 267 225 168 175 226 245 241 234 225 226 225 190 162 168 165 150 146 146 147 132 122 132 142 145 144 150 152 149 157 180 172 157 152 152 153 153 152 152 155 162 164 162 161 164 167 168 167 167 170 173 176 174 173 174 171 174 178 178 189 193 191 196 195 195 194 188 195 205 202 207 216 211 195 187 202 219 235 249 255 263 265 258 97 88 77 82 77 79
273 279 279 262 267 274 274 243 239 250 215 176 181 212 236 234 232 230 222 225 213 166 165 165 149 144 150 155 143 137 145 148 149 151 148 141 144 152 162 173 166 156 154 155 156 152 148 153 163 167 163 159 162 165 165 163 164 163 165 171 171 170 168 165 170 176 178 188 197 192 193 200 200 199 201 206 207 206 212 219 217 214 214 214 213 226 228 220 234 230 136 111 108 88 80 80 83
263 253 274 256 239 254 268 256 237 242 223 186 192 212 233 230 232 232 215 222 226 173 164 164 149 148 157 161 149 146 148 149 148 145 136 132 143 152 158 177 177 162 159 158 157 154 149 154 165 167 161 156 160 161 159 159 158 157 159 162 164 164 161 162 170 176 179 182 191 197 192 197 200 200 205 208 208 208 211 215 219 222 222 219 214 219 216 213 226 184 123 106 112 104 93 93 93
272 227 243 251 248 251 249 244 237 244 240 197 199 207 227 222 239 245 218 221 224 170 163 161 150 153 156 153 152 146 139 145 139 137 143 145 153 162 163 177 184 168 164 162 158 153 149 156 168 166 156 153 157 157 157 157 155 157 160 159 159 162 164 168 172 173 175 177 188 202 196 192 196 202 205 204 208 210 212 219 225 227 222 221 217 214 212 209 205 156 137 112 112 114 107 107 102
274 250 234 241 244 248 252 243 229 235 237 213 202 201 224 219 230 244 225 217 217 173 159 159 156 158 155 153 154 144 137 142 135 142 153 151 160 169 165 175 184 170 166 164 158 148 148 160 168 162 148 148 156 158 159 157 157 161 164 162 160 161 166 168 165 163 166 174 183 195 200 197 195 205 209 206 211 217 220 222 225 227 220 219 217 212 208 199 183 152 138 117 114 116 116 119 114
241 245 231 232 234 236 245 251 235 226 222 213 206 200 219 233 236 246 235 214 211 187 160 156 162 160 154 160 154 145 142 142 143 150 153 154 163 168 167 180 183 170 164 159 148 135 146 165 166 152 139 145 158 161 157 155 157 159 159 159 156 156 158 155 154 157 162 170 174 180 193 198 196 204 212 210 215 222 227 225 223 222 218 217 218 213 206 193 175 154 140 125 123 122 121 124 123
234 244 237 228 230 233 237 242 242 237 217 204 208 195 203 225 237 250 254 232 219 207 164 148 161 160 156 164 157 152 146 143 148 149 154 162 165 164 170 179 175 167 155 150 148 138 144 160 159 153 147 149 158 158 154 153 154 153 154 152 149 153 155 154 155 153 153 163 169 171 181 188 194 203 210 214 219 222 224 225 221 216 211 207 207 206 195 185 170 155 146 139 135 129 126 129 129
248 256 263 257 252 252 246 243 238 233 217 202 204 189 192 213 225 240 250 256 264 227 180 149 154 161 162 163 159 149 136 136 144 147 156 162 161 162 167 169 168 160 144 150 154 136 137 151 156 159 156 152 157 157 153 153 153 152 155 154 151 154 158 162 162 156 151 152 151 157 170 177 186 195 198 209 218 213 210 210 206 200 191 189 195 194 179 171 165 159 158 154 150 142 132 134 137
259 265 275 280 279 275 271 270 253 231 214 199 195 185 194 207 215 232 240 249 261 215 173 154 152 162 167 160 156 140 125 132 140 147 156 158 161 163 163 165 162 144 139 152 142 120 134 151 156 157 152 152 159 160 154 154 155 153 154 158 155 150 151 154 151 150 147 139 133 142 160 168 173 178 177 190 200 190 186 184 183 184 183 185 189 181 167 160 163 169 174 166 164 159 143 141 146
256 263 276 282 277 288 291 283 271 245 209 187 184 187 205 207 207 222 225 217 225 181 164 162 154 160 168 160 155 138 134 142 144 148 153 157 162 161 160 158 147 137 140 142 122 119 138 148 154 154 149 151 161 166 159 157 157 155 155 158 156 150 146 145 141 141 142 136 136 145 154 158 153 149 152 165 172 172 176 174 174 180 185 188 188 183 170 158 164 177 189 176 166 159 147 151 163
243 237 253 268 267 279 291 288 299 318 168 152 160 178 232 222 204 222 229 193 189 184 175 167 158 164 170 163 156 147 146 147 146 150 149 153 153 152 155 142 124 123 120 118 128 137 141 146 153 153 151 158 170 174 168 163 161 161 158 154 152 147 142 139 135 135 137 133 133 140 144 141 130 121 130 149 161 168 175 178 177 179 185 192 192 191 186 171 174 189 202 187 167 157 147 149 167
246 226 226 256 271 271 277 306 337 350 352 87 97 56 320 273 215 248 268 209 188 191 181 169 154 148 146 148 149 147 148 147 149 150 142 139 133 137 141 115 100 103 109 134 158 151 144 150 155 154 156 166 173 168 164 161 153 145 140 135 133 132 131 133 133 135 137 130 128 135 142 141 124 109 113 124 136 152 167 179 185 183 190 196 191 194 194 186 193 205 209 198 180 172 162 149 151
280 237 222 242 271 278 292 317 339 355 329 355 77 63 307 298 296 276 281 253 213 197 179 179 157 115 117 133 140 137 139 141 138 126 112 112 115 115 109 99 106 120 139 160 163 150 148 154 158 157 157 163 163 154 150 148 141 134 131 128 126 126 128 135 138 141 143 137 132 138 149 157 151 130 115 106 110 123 143 158 177 184 184 189 190 197 199 197 208 216 212 196 187 184 174 157 151
279 260 247 246 258 270 280 301 318 332 273 280 94 117 262 308 309 271 259 244 231 194 166 177 158 111 118 133 134 128 129 121 103 89 77 64 67 61 66 98 119 134 147 153 150 148 152 157 159 158 156 159 158 152 147 140 136 135 133 131 131 132 137 142 144 143 142 141 137 137 144 145 140 135 122 105 101 106 127 139 172 187 157 147 172 186 199 211 212 216 212 194 183 184 183 168 157
237 246 268 266 259 262 260 262 275 253 216 241 113 128 183 299 284 268 260 253 249 170 162 162 123 112 117 118 113 107 104 100 96 93 79 62 51 37 53 98 112 122 132 140 148 153 156 159 159 157 158 162 160 157 152 143 139 138 134 134 137 140 142 143 143 140 139 142 140 135 138 136 130 130 124 121 129 130 140 138 144 189 176 157 149 153 169 200 191 183 184 186 186 190 196 184 170
233 216 240 261 261 259 253 226 249 259 131 272 268 133 130 275 266 281 284 266 256 194 177 133 107 114 104 93 99 98 98 106 111 112 103 92 83 68 85 111 118 132 145 152 156 156 155 158 160 161 163 165 163 161 158 151 144 141 139 142 144 143 139 136 137 138 137 140 140 137 139 141 138 134 129 133 139 136 135 135 98 91 184 180 150 133 132 156 177 174 168 182 193 191 198 200 183
223 219 234 258 264 264 261 226 229 207 100 262 264 149 129 278 276 287 290 259 232 213 174 119 112 107 92 93 104 105 109 119 114 109 109 110 109 107 119 137 141 143 149 153 155 155 153 157 164 167 167 167 165 164 162 156 150 148 149 150 147 142 138 136 136 137 137 139 142 144 144 141 139 136 131 133 144 144 142 157 109 73 118 149 137 128 126 134 161 166 163 177 188 184 186 189 175
213 216 234 258 265 275 273 232 177 114 215 242 239 185 156 254 282 250 244 261 217 170 120 112 111 99 96 104 112 115 126 131 117 114 119 124 127 130 142 153 148 142 147 152 153 158 160 165 171 172 171 169 166 167 165 159 157 159 156 152 149 145 143 143 140 139 143 144 142 144 144 143 144 142 131 126 135 136 129 149 133 90 102 121 122 128 128 124 135 147 155 159 163 171 171 163 155
214 212 213 242 281 326 324 271 133 140 249 226 209 206 174 198 276 264 10 352 317 141 123 121 108 99 102 106 107 116 128 126 121 124 132 139 143 151 159 157 145 141 148 154 159 168 170 172 178 178 175 171 168 170 167 162 164 163 156 154 153 151 150 149 146 145 149 150 145 144 147 148 149 150 144 131 130 130 123 127 128 111 103 104 116 132 128 125 127 129 139 142 140 147 150 149 143
208 214 199 212 295 356 336 288 165 194 242 209 193 219 217 195 267 311 49 36 20 71 116 123 109 104 108 107 107 118 127 129 134 138 144 149 154 174 174 158 149 148 152 162 173 177 176 177 181 182 179 175 174 173 169 167 168 163 159 159 156 153 154 152 150 150 151 152 151 152 154 149 146 149 149 138 136 139 128 128 133 128 117 98 114 137 132 129 131 123 128 134 133 137 138 137 133
187 192 169 169 188 111 274 280 229 218 248 230 194 201 241 211 310 1 58 61 44 51 81 104 107 112 119 122 121 127 131 132 138 140 148 156 154 175 175 161 166 160 157 169 182 181 179 179 182 184 181 178 177 174 171 171 170 165 162 161 156 155 156 154 152 152 154 157 157 158 159 154 147 149 151 143 147 153 132 132 141 142 137 106 103 136 138 128 130 125 125 128 126 131 132 131 133
180 182 154 164 168 164 210 216 196 234 268 280 209 173 217 188 201 59 70 63 54 54 59 82 99 113 122 123 123 126 126 123 124 138 154 159 154 172 174 169 190 174 155 161 174 177 183 184 185 188 184 179 176 175 175 175 174 169 165 163 159 157 156 154 153 155 158 160 161 165 163 157 150 148 152 149 151 154 138 136 145 151 152 124 98 128 143 136 131 125 125 128 127 131 133 132 137
278 213 164 208 194 155 173 190 190 182 79 329 274 166 230 197 211 69 77 65 56 60 64 79 92 104 110 110 113 116 118 125 133 148 155 140 142 167 178 175 186 172 144 143 158 173 189 192 190 192 187 181 178 177 179 178 175 169 167 165 161 158 156 154 156 159 162 159 160 165 160 155 152 149 151 153 158 161 151 144 141 143 151 134 110 122 134 136 135 132 133 134 134 136 134 124 123
296 319 206 228 197 143 130 272 279 85 91 290 170 131 295 331 352 33 70 69 62 66 68 78 89 97 101 103 110 115 119 127 130 137 144 122 128 153 171 181 186 163 144 153 168 179 189 192 191 193 192 187 182 181 182 183 181 170 167 166 161 158 157 158 159 157 154 152 149 155 154 151 152 152 153 156 160 156 148 142 136 137 145 141 128 125 129 135 138 139 140 137 137 139 132 118 114
144 232 227 246 136 119 112 117 311 44 159 257 151 133 79 32 297 4 61 71 69 77 79 81 87 95 101 107 114 120 124 125 121 123 140 141 127 141 157 176 181 161 156 166 172 176 184 192 198 200 200 196 190 188 186 186 185 172 167 166 162 162 161 162 162 156 150 146 143 149 152 151 150 150 148 148 149 147 143 143 143 144 148 147 141 135 134 138 139 139 139 134 136 138 128 115 114
164 197 209 101 83 87 40 135 173 173 197 269 55 103 63 56 259 314 62 88 87 87 88 87 89 96 106 113 116 120 121 123 126 130 147 153 134 139 151 160 161 152 159 169 166 163 167 186 205 208 206 201 195 194 190 187 185 178 175 172 166 167 168 165 162 160 155 147 143 147 150 149 147 144 145 147 149 150 149 150 149 149 149 147 145 144 144 147 147 143 138 135 137 137 125 114 115
204 169 120 117 139 164 190 162 161 154 181 239 34 35 338 299 277 298 98 103 95 91 87 88 94 101 112 120 123 127 127 127 132 136 146 148 132 129 131 137 141 141 153 164 165 165 163 169 202 207 205 201 194 189 187 186 180 176 177 175 170 172 174 167 162 161 159 150 146 149 151 148 145 146 150 151 152 153 153 153 153 153 153 150 149 150 151 152 150 145 142 142 144 141 129 117 117
247 206 181 167 126 150 178 198 178 146 148 168 121 41 268 268 295 20 72 77 84 93 91 90 96 104 112 119 124 131 133 129 134 138 141 139 128 119 117 125 133 135 144 151 151 154 151 154 179 192 198 200 194 188 190 189 180 173 174 175 176 177 174 166 162 163 159 155 154 154 154 150 149 153 157 155 155 155 156 157 157 158 156 154 155 155 152 149 147 148 150 150 148 142 133 126 125
349 254 223 182 124 121 114 309 257 145 114 155 154 152 258 268 314 45 56 55 57 62 81 96 96 101 108 108 109 114 123 130 131 131 132 134 134 125 119 122 124 120 119 120 117 110 106 128 156 175 192 197 195 195 198 196 188 179 174 176 180 175 169 163 161 161 159 158 162 161 157 155 156 159 162 160 159 158 159 160 159 159 159 158 158 157 158 156 153 155 156 152 149 146 140 135 136
Height
769 771 771 772 772 773 774 774 787 786 786 799 788 782 766 746 747 744 739 734 732 723 710 710 710 713 724 738 744 745 748 751 755 763 776 768 756 758 757 759 761 763 769 771 772 773 775 777 778 781 783 786 788 790 792 793 795 796 797 798 799 801 802 804 805 806 807 808 810 810 812 812 813 814 815 816 816 817 818 819 819 820 821 822 823 824 825 825 826 827 827 828 828 828 829 829 829
769 771 770 773 771 775 776 773 791 791 793 803 783 772 757 743 748 746 739 734 733 720 708 708 711 718 725 731 733 741 751 749 746 750 758 757 758 762 760 762 762 764 769 771 773 774 776 778 780 782 784 787 789 791 793 794 796 797 798 799 801 802 803 805 806 807 808 810 811 812 813 813 814 815 816 817 817 818 819 819 820 821 822 823 824 825 826 826 827 828 829 829 830 830 830 830 830
770 771 771 773 772 774 776 776 792 795 799 802 779 761 751 750 749 741 734 726 722 712 708 709 715 723 727 737 739 748 759 751 746 749 755 757 759 764 764 764 764 767 769 772 774 774 777 779 781 783 785 788 790 792 793 795 797 798 800 801 802 803 805 806 808 809 809 811 812 813 814 815 816 816 818 818 819 819 820 820 821 822 823 824 825 826 827 827 828 829 830 830 831 831 831 831 831
769 771 771 773 775 776 779 784 789 793 798 794 776 757 749 749 742 737 730 719 714 708 710 715 727 727 728 746 746 750 759 752 749 750 755 758 760 765 765 765 767 768 770 773 774 775 778 780 782 784 787 789 791 793 794 796 797 799 801 802 803 805 806 807 809 810 810 812 812 813 814 815 816 817 819 819 820 820 821 822 822 823 824 825 826 827 828 828 829 830 831 832 832 832 832 832 832
769 771 771 773 779 778 780 783 781 788 791 781 772 755 745 740 734 734 727 719 713 711 714 719 735 732 729 743 744 754 758 753 751 749 755 760 761 764 765 766 768 769 772 774 775 777 779 782 784 786 788 790 792 793 795 797 798 800 801 803 804 806 807 808 810 810 811 812 813 814 815 816 817 818 819 820 821 822 823 823 823 824 825 826 827 828 828 829 830 831 832 832 833 833 833 833 834
769 771 771 772 775 772 780 787 783 783 773 766 766 752 742 736 730 729 724 721 715 713 714 721 734 735 742 744 742 750 751 751 753 752 756 761 762 763 766 768 770 771 773 774 776 778 780 783 785 787 789 791 793 794 796 797 799 800 802 803 805 806 808 809 810 811 812 813 813 814 815 817 817 819 820 821 822 823 824 824 825 825 826 827 828 829 829 830 830 831 832 833 834 834 834 834 835
770 772 771 775 775 772 786 792 786 780 761 753 754 745 739 733 727 724 724 725 721 716 714 724 728 736 752 747 747 749 743 747 750 754 756 760 763 764 767 770 771 773 774 776 777 779 782 784 786 788 790 792 794 795 797 798 799 801 802 804 805 807 808 810 810 811 813 813 814 815 816 817 818 819 820 821 823 824 824 825 825 826 827 828 828 830 830 831 831 832 832 833 834 835 835 835 835
771 774 771 778 781 778 786 788 781 773 757 745 741 738 733 727 723 722 724 725 727 722 719 725 724 742 757 746 756 754 744 748 749 755 757 759 763 765 769 771 773 774 776 777 779 781 783 785 787 789 791 793 794 796 797 798 800 801 803 804 806 807 808 810 811 812 813 814 815 816 817 818 819 820 821 822 823 824 825 825 826 827 827 828 829 830 831 832 832 832 833 833 835 835 836 836 836
770 774 773 779 785 783 784 783 776 764 752 743 736 733 728 722 720 722 725 724 725 722 721 723 722 746 758 751 760 755 748 752 752 757 758 761 763 765 769 771 773 774 777 778 780 783 785 787 789 790 792 793 794 796 797 799 801 802 804 805 807 808 809 810 811 813 813 815 816 817 818 818 820 821 822 823 824 825 826 826 827 828 828 829 830 830 832 832 833 833 833 834 835 836 837 837 837
771 773 774 779 783 787 787 781 771 759 748 738 732 728 724 719 719 721 724 725 722 722 723 721 726 745 756 758 763 755 754 754 754 759 759 762 764 766 769 771 773 774 777 779 782 784 787 789 790 792 792 794 795 797 799 800 802 803 805 806 808 808 809 810 811 813 814 815 816 817 818 819 820 821 823 824 825 826 827 827 828 829 829 830 830 831 832 833 834 834 834 834 835 836 837 838 837
774 772 773 782 787 790 788 779 767 755 744 734 728 722 720 717 718 722 723 724 720 723 725 726 738 747 753 762 763 756 754 754 755 759 760 762 765 767 769 771 773 775 778 780 783 786 788 791 791 793 793 795 796 798 800 801 803 804 806 807 808 809 810 811 811 813 814 815 816 818 819 820 821 822 823 824 825 826 827 828 828 830 830 830 831 832 833 833 834 834 835 835 836 837 837 839 839
777 773 773 786 788 785 779 773 764 752 743 736 729 719 716 715 720 724 724 725 721 724 723 725 738 742 754 766 761 756 754 756 756 758 761 764 766 768 770 772 774 776 779 781 784 786 789 791 792 793 794 796 797 799 801 801 804 805 807 808 808 810 810 811 812 813 814 815 817 818 819 820 821 822 823 824 825 826 827 828 829 830 831 831 832 832 833 833 834 834 835 835 836 837 838 839 839
775 772 776 784 778 775 772 768 760 752 747 737 727 717 714 716 721 722 721 723 722 727 723 721 728 733 754 764 758 757 755 756 756 758 762 765 768 768 771 773 776 778 780 782 784 787 790 791 792 793 795 797 798 799 801 802 804 805 807 808 809 810 810 812 812 814 814 815 817 818 820 821 822 822 823 824 825 826 827 828 829 830 831 832 832 833 833 834 834 835 835 836 837 837 838 839 839
769 768 774 779 771 769 767 764 757 755 752 735 722 716 713 716 717 716 718 725 726 728 723 719 723 735 754 761 761 759 755 756 757 759 763 766 769 769 772 775 777 780 782 784 786 788 790 791 792 793 795 797 798 799 801 803 804 805 807 808 809 810 811 812 813 814 815 816 817 818 819 821 821 822 823 824 825 826 827 828 829 830 831 832 833 833 834 834 835 835 835 836 837 838 838 839 840
764 764 769 776 773 770 764 760 755 755 750 731 722 716 714 714 711 714 717 724 728 723 721 722 722 737 753 756 761 757 752 755 756 760 764 767 769 771 774 776 780 782 784 785 786 788 789 790 791 793 795 796 797 798 800 802 804 805 806 808 809 811 812 813 814 815 815 816 817 818 819 820 822 822 824 825 826 827 827 828 829 830 831 832 833 833 834 834 835 835 836 836 837 838 838 839 840
757 761 769 775 775 773 764 755 752 754 745 728 721 714 718 717 709 716 714 715 726 722 724 731 725 733 744 745 749 749 750 754 756 761 764 767 770 773 776 779 783 784 785 785 786 787 788 789 790 792 794 796 797 798 800 802 804 805 807 809 811 812 813 814 815 815 816 817 818 818 819 821 822 824 825 826 826 828 828 828 829 830 831 832 833 834 834 834 834 835 836 836 837 837 838 839 839
754 762 773 778 776 772 762 752 750 750 741 729 723 717 723 723 712 713 708 711 729 731 730 735 729 729 736 738 741 745 749 753 755 761 764 768 770 774 778 781 784 785 786 786 786 787 788 789 789 791 793 795 797 798 801 803 804 806 808 811 812 813 814 815 815 815 816 817 818 818 819 821 823 824 826 826 827 829 828 828 829 830 831 832 834 834 835 834 834 835 835 836 837 837 838 838 839
757 765 774 778 774 766 754 747 742 739 737 731 724 720 723 727 721 715 713 721 732 736 736 736 734 733 734 737 741 746 750 752 755 760 764 768 771 776 780 781 784 785 785 785 786 787 788 789 790 790 792 796 798 799 801 803 805 807 809 811 813 814 815 816 817 817 817 818 819 819 820 822 823 824 826 827 828 829 828 828 829 831 832 833 834 834 834 834 834 835 835 835 836 837 837 838 839
758 763 770 772 764 753 743 740 737 736 736 730 724 722 722 725 723 719 724 732 734 742 744 740 743 744 741 741 744 747 750 752 755 760 764 767 771 775 778 781 783 785 785 785 786 787 788 789 790 791 793 796 798 800 802 803 805 807 810 812 813 815 816 817 818 818 819 819 820 820 821 822 824 825 826 827 828 829 828 828 830 831 833 834 834 834 834 834 835 835 835 835 835 836 837 839 840
755 759 768 764 752 746 738 736 736 733 730 727 725 723 723 723 719 720 728 735 738 745 747 745 749 750 747 745 745 748 750 753 756 760 764 768 771 774 777 780 782 784 784 784 786 787 788 789 791 792 793 796 798 800 802 804 806 808 810 812 814 816 817 818 818 819 820 820 821 821 822 823 824 825 826 827 828 828 828 829 830 831 833 834 834 834 834 835 835 835 835 835 836 837 838 839 841
752 754 763 754 746 746 736 733 732 728 726 725 724 723 727 722 716 721 727 737 745 745 743 744 747 747 747 747 746 748 751 754 756 761 767 769 771 773 777 779 781 783 784 784 785 787 788 789 790 792 794 796 798 800 802 805 806 808 811 813 815 816 817 818 818 820 820 821 821 822 823 824 825 826 827 828 828 828 828 829 830 831 833 834 834 834 834 835 835 836 836 836 836 837 838 839 841
752 750 751 745 744 745 734 730 731 728 726 725 725 726 728 722 719 722 725 738 745 739 736 738 741 742 744 746 747 748 751 754 758 765 769 769 770 773 777 779 781 783 784 784 785 786 788 789 790 792 794 796 798 800 802 805 806 808 810 813 814 815 817 818 819 820 820 821 822 823 824 825 826 827 828 828 829 828 828 829 830 831 832 833 834 834 834 835 836 836 836 836 837 837 838 839 840
753 750 744 740 740 740 732 729 730 727 727 729 729 726 724 727 727 722 723 732 735 730 728 731 736 738 741 744 747 750 752 756 761 767 768 768 769 773 777 780 781 783 784 784 785 786 786 788 790 791 793 795 798 800 802 804 806 808 811 812 814 815 817 818 819 820 821 822 823 824 825 826 827 828 828 829 829 829 829 829 830 831 832 833 833 834 835 836 837 837 836 836 837 838 838 838 840
750 750 742 738 735 735 730 728 727 725 727 727 725 725 727 733 732 724 727 730 728 727 725 727 732 735 740 744 748 751 752 758 765 767 767 768 771 774 777 780 781 783 784 785 785 786 786 788 789 791 793 795 797 800 802 804 807 809 811 812 814 816 817 818 819 820 821 822 824 825 825 826 827 828 828 829 829 829 829 830 830 831 832 833 833 834 835 836 837 836 837 837 837 838 838 839 840
747 747 741 735 733 731 727 726 726 725 725 722 723 730 730 730 728 727 732 730 726 726 726 727 731 735 741 745 748 750 754 763 768 768 769 771 774 776 778 780 781 782 783 785 786 786 787 788 789 791 793 795 797 800 802 804 807 809 811 812 814 816 817 818 820 821 822 823 824 825 825 826 827 827 828 829 829 829 830 830 830 831 832 832 833 834 835 836 836 836 836 837 837 838 838 839 839
742 740 737 734 732 729 727 726 725 725 724 722 726 732 730 725 727 731 731 728 726 725 726 728 731 737 741 745 747 750 756 765 768 767 769 773 778 780 781 780 781 781 782 783 785 786 787 788 790 791 792 795 797 800 802 805 807 809 811 813 814 815 817 818 820 821 822 822 823 824 825 826 827 827 828 828 829 829 830 830 830 831 831 832 833 834 835 835 836 836 836 837 837 838 839 839 840
736 735 734 731 731 726 726 726 724 724 723 722 728 733 729 724 730 737 730 725 725 726 729 729 732 737 740 743 746 749 757 762 763 765 768 773 779 783 784 782 780 780 781 782 784 785 787 789 790 791 794 796 798 800 803 805 807 809 811 813 814 816 817 819 820 821 821 822 822 824 825 826 827 827 828 828 829 829 829 830 830 831 831 832 833 834 834 835 835 836 836 837 837 838 840 840 841
733 734 734 731 728 727 725 726 724 724 725 721 725 732 730 727 733 736 728 724 725 727 731 731 733 737 739 743 746 749 756 759 761 765 768 771 774 781 787 783 779 779 779 780 782 784 787 789 791 793 795 797 798 800 803 805 807 809 811 813 815 816 818 819 820 820 821 822 822 823 825 826 827 827 828 828 828 829 829 830 830 831 832 832 833 834 834 834 835 836 836 837 838 839 840 841 841
733 734 739 735 730 730 726 724 723 725 727 720 723 737 739 734 734 729 721 722 724 727 731 732 733 736 739 744 746 751 755 757 761 765 768 769 769 775 786 785 779 778 778 779 781 784 787 790 792 794 795 796 798 799 802 805 807 809 811 813 815 817 818 819 820 820 820 821 822 823 825 826 827 827 828 828 828 829 830 830 831 831 832 832 833 833 833 834 835 836 836 837 838 839 840 841 842
735 734 739 740 741 738 727 723 723 725 725 716 726 750 749 737 731 724 718 718 722 729 731 731 733 736 740 744 747 752 754 756 760 763 766 769 770 773 782 787 782 778 778 778 780 784 788 790 792 793 794 795 797 799 802 804 807 809 811 813 815 817 818 819 819 820 820 821 822 823 824 826 826 827 828 829 829 830 831 831 831 831 832 832 833 833 834 834 835 836 836 837 838 839 840 841 842
738 738 740 743 750 745 728 723 726 727 724 714 728 752 749 735 728 721 717 716 719 728 731 729 732 736 740 743 746 751 753 755 758 761 765 770 774 776 781 787 785 779 777 778 780 784 788 790 791 791 793 795 797 800 802 805 807 809 811 813 815 817 818 819 819 820 820 821 822 823 824 825 826 827 828 829 830 831 831 831 831 831 832 832 833 833 834 835 835 836 837 837 838 839 840 841 842
740 748 752 747 750 746 731 724 725 728 724 715 728 748 744 733 726 718 715 715 717 725 729 729 731 735 738 741 744 748 750 754 757 760 765 769 772 775 778 786 786 780 777 778 780 784 787 789 789 789 792 796 798 801 804 805 807 809 811 813 815 816 817 818 819 820 821 821 822 823 824 824 825 826 827 828 830 830 831 831 831 831 832 833 834 834 834 835 835 836 837 837 838 840 841 841 841
745 751 758 751 748 748 738 726 720 722 724 719 725 740 740 730 722 716 713 714 716 721 727 729 731 734 737 740 743 745 748 753 756 759 763 765 768 769 771 781 786 780 776 777 779 783 786 787 787 789 793 796 799 802 804 806 808 809 812 814 815 816 817 818 819 820 821 822 822 822 823 823 824 824 826 828 829 830 830 831 831 831 832 833 834 834 835 835 836 837 837 837 838 840 841 841 841
754 751 754 748 744 746 743 732 720 717 723 724 724 731 734 727 719 715 713 713 715 719 723 727 730 732 736 739 741 744 747 751 755 757 760 763 766 767 768 777 783 780 776 776 779 783 786 787 787 791 795 797 800 802 804 806 808 810 812 814 815 816 818 818 818 819 820 821 821 821 822 822 823 824 826 827 828 829 829 830 831 831 832 833 834 835 835 836 837 837 837 838 839 839 840 840 841
759 755 753 748 742 742 742 734 721 715 721 724 726 730 730 725 718 714 712 711 714 716 719 724 727 730 734 736 739 742 745 750 752 754 758 762 766 767 770 777 781 777 775 778 782 786 789 790 790 794 797 798 802 803 805 807 809 811 812 814 815 816 817 818 818 819 819 820 821 821 821 821 823 824 825 826 827 828 829 829 830 831 832 833 834 835 835 836 837 837 837 838 839 840 840 841 841
749 747 747 748 745 741 734 726 716 712 720 723 724 730 728 724 719 713 710 709 714 717 717 723 728 729 732 735 737 740 744 748 750 752 755 760 763 765 770 776 779 777 776 778 782 785 790 793 794 796 798 801 805 804 805 808 809 811 812 813 815 816 816 817 818 819 819 820 820 820 820 821 822 824 825 826 826 827 828 829 830 831 832 833 834 835 835 836 837 837 837 838 839 840 841 841 842
740 740 742 742 742 740 728 719 710 705 718 721 717 723 725 721 718 712 708 708 712 716 717 722 728 730 731 734 736 739 743 746 748 750 754 757 761 763 766 771 775 776 776 777 780 784 789 794 795 797 799 801 804 804 804 807 808 810 812 813 814 815 816 816 817 818 819 819 820 819 820 821 822 823 825 825 826 827 828 829 829 831 832 834 835 835 835 836 837 837 838 838 839 840 840 841 842
740 742 743 742 741 736 724 715 707 699 712 719 713 719 723 718 716 710 707 710 712 711 713 718 726 729 730 733 737 740 744 746 748 751 753 756 759 761 763 766 770 773 774 777 782 785 789 793 795 797 800 800 802 804 804 806 808 809 810 811 812 814 815 815 817 818 819 819 820 820 820 821 822 824 825 825 826 827 828 829 830 831 832 834 835 835 836 837 837 838 838 838 839 839 840 840 841
740 741 744 746 738 732 724 712 703 698 707 716 713 718 720 714 712 709 707 710 709 706 707 712 721 727 729 732 736 740 744 747 749 752 754 756 757 759 761 764 769 771 774 779 784 787 789 792 794 796 799 800 803 806 805 806 808 808 809 811 812 813 814 815 817 818 819 819 820 820 821 822 823 824 825 826 826 827 828 829 830 831 832 833 834 835 836 837 837 838 838 838 838 838 839 840 840
740 740 744 746 735 734 736 719 705 701 703 709 713 717 717 712 711 708 706 706 704 703 705 707 714 720 723 726 731 736 741 745 749 751 754 756 758 759 761 765 770 773 778 783 786 787 788 789 791 793 796 800 804 806 806 806 807 808 809 810 812 813 814 816 817 818 819 820 821 821 821 822 823 824 825 826 827 827 828 829 830 831 832 833 834 835 836 836 837 837 837 838 838 837 838 839 840
739 736 740 741 732 732 735 724 714 709 704 704 712 724 724 716 716 712 705 704 704 704 705 707 710 715 720 725 730 733 736 741 746 751 755 757 760 761 763 768 772 777 782 784 784 785 786 786 789 790 793 799 803 804 804 805 806 807 808 810 812 813 814 815 816 818 818 819 820 821 822 823 824 824 825 826 827 828 829 830 831 832 832 833 834 835 835 836 836 837 837 837 837 837 837 838 839
739 734 730 731 729 728 729 727 727 729 724 709 712 739 741 721 717 716 708 707 708 705 707 709 710 715 723 729 734 737 739 741 745 751 757 760 761 764 768 772 775 777 779 780 782 785 786 787 788 789 792 797 801 802 803 804 805 806 807 809 810 812 814 815 816 816 817 818 819 820 822 823 824 825 826 827 828 829 830 831 831 832 833 833 834 834 835 835 836 836 837 837 837 837 837 837 837
742 732 723 723 724 726 730 731 735 743 739 716 711 739 749 730 721 718 713 713 710 707 710 710 710 718 727 731 735 739 741 745 751 757 762 764 765 769 773 777 779 778 779 782 784 787 788 789 789 790 792 796 799 800 802 803 804 805 807 808 809 811 813 814 815 816 816 818 819 820 822 823 824 824 825 827 828 829 830 831 832 832 833 833 833 834 834 834 835 836 836 837 837 837 837 836 837
741 726 721 725 724 725 728 730 736 737 731 723 717 728 745 745 729 716 713 715 714 713 714 712 714 723 730 733 738 743 746 750 756 762 765 766 770 776 779 780 782 784 786 787 786 786 788 789 791 791 792 795 797 799 801 802 803 804 806 808 810 811 812 813 814 815 816 817 818 820 821 822 823 824 826 827 828 829 830 831 832 832 832 833 833 833 834 834 834 835 836 837 837 837 837 837 837
731 719 719 723 722 723 721 725 733 729 730 739 730 725 746 753 731 716 715 717 719 719 716 718 724 729 733 739 743 746 751 754 756 760 764 766 772 781 786 785 783 784 785 786 786 786 787 789 791 792 792 794 796 798 799 801 802 803 805 807 810 811 812 813 814 815 816 817 818 819 820 821 823 824 826 827 828 829 829 830 831 832 832 833 833 834 834 834 834 835 836 836 837 837 837 837 838
719 715 718 719 720 720 719 725 729 728 739 749 736 728 748 754 733 722 724 722 721 719 718 725 730 733 739 745 747 749 753 757 759 762 767 770 774 780 787 786 780 778 782 785 787 788 788 790 791 792 792 793 795 796 798 799 801 803 805 807 809 810 811 813 814 814 815 816 818 819 820 821 823 824 825 826 827 828 829 830 831 832 832 833 834 834 835 835 835 835 836 836 837 837 838 838 838
712 715 720 722 722 720 722 724 723 736 751 747 733 727 743 755 739 725 727 724 715 714 724 732 732 737 746 747 749 753 755 758 762 765 769 773 775 778 782 782 776 775 781 784 786 788 789 789 790 791 791 792 793 795 797 799 801 803 804 805 807 809 810 812 812 813 815 816 817 818 819 821 822 824 825 826 827 828 829 830 831 832 833 833 834 835 835 836 836 836 836 836 837 837 837 838 838
712 717 722 731 733 728 732 729 727 749 760 742 728 724 738 756 745 726 726 721 710 711 724 733 735 743 749 747 750 756 758 759 761 764 768 771 775 778 778 776 773 774 779 783 784 785 786 787 788 789 790 791 792 794 796 798 800 802 803 804 806 808 809 810 811 812 814 815 816 818 819 821 822 824 825 826 827 828 828 830 831 832 833 834 835 835 836 836 836 837 836 837 837 837 838 838 838
714 719 725 740 749 748 752 747 742 754 753 734 725 727 740 751 742 729 727 722 715 714 719 725 734 745 750 748 751 755 758 759 760 762 765 768 773 778 776 772 770 770 773 779 780 779 781 783 785 787 787 789 790 791 794 796 798 800 802 803 804 806 808 810 811 812 813 814 816 818 819 820 822 823 824 825 826 827 828 829 831 832 833 834 835 836 837 837 837 837 837 837 838 838 839 839 838
716 722 729 743 755 764 769 760 753 754 746 729 723 731 745 748 739 731 728 725 722 720 720 722 732 744 749 749 750 753 756 758 761 763 764 766 772 776 776 772 771 768 766 772 775 776 779 780 783 785 786 788 789 791 793 796 798 800 801 802 803 805 807 809 811 812 813 815 816 817 818 819 821 822 824 826 827 828 828 829 831 832 834 835 835 836 837 838 838 838 838 839 839 839 840 840 840
711 711 719 734 743 754 764 760 757 756 747 734 729 739 752 752 741 730 726 727 725 725 727 728 736 745 747 749 752 755 759 760 762 763 762 766 769 773 774 772 771 767 764 769 777 779 781 782 785 788 789 790 791 792 794 796 798 800 801 801 802 803 806 808 811 812 814 815 816 817 818 819 820 822 824 825 827 828 829 830 831 832 834 835 836 836 837 839 840 840 840 840 840 840 841 842 842
713 706 716 730 729 733 747 752 750 750 750 745 742 748 750 743 734 727 727 731 730 732 734 736 744 748 748 753 756 758 761 761 762 762 762 766 769 772 773 771 771 770 768 772 778 781 783 785 787 790 791 791 792 793 794 796 798 800 800 801 801 803 806 808 810 812 814 815 816 817 818 819 820 821 823 825 827 828 829 830 831 832 834 836 836 837 838 839 841 841 842 841 841 842 842 843 843
719 717 723 721 712 718 739 751 745 745 756 754 748 751 749 741 737 733 734 739 740 740 742 745 750 751 751 755 757 759 761 760 761 762 762 766 770 772 773 772 773 772 770 772 775 778 781 784 787 790 790 790 791 793 795 798 800 801 802 802 803 804 806 807 809 811 813 815 816 817 818 819 820 821 823 825 827 828 829 830 831 833 834 836 837 838 838 840 841 842 843 843 843 843 843 844 844
718 724 718 710 710 715 729 749 752 755 765 756 747 754 757 756 755 746 742 749 751 749 750 753 755 755 756 758 759 761 761 761 762 763 764 766 769 771 772 773 774 772 770 771 774 777 781 785 788 789 789 790 792 794 797 800 802 802 803 804 804 806 807 808 809 811 813 814 816 818 819 820 821 822 823 825 827 828 829 830 832 833 835 836 837 838 839 840 841 843 844 844 844 844 844 845 845
705 711 705 712 732 734 733 745 755 763 769 758 754 763 765 766 764 755 752 756 756 754 755 758 760 759 760 762 763 764 765 765 766 766 767 768 770 771 771 773 774 772 771 772 774 777 781 785 787 788 789 790 793 796 798 800 801 801 803 803 804 806 808 809 810 811 813 815 817 818 819 820 821 822 824 825 827 828 829 831 832 833 835 836 837 838 839 840 841 843 844 844 845 845 845 845 846
698 703 705 713 728 734 735 740 745 755 764 763 768 774 771 767 763 756 755 756 756 757 759 762 764 763 763 765 767 768 768 769 769 770 771 771 772 773 773 774 773 772 772 773 773 774 777 781 786 788 790 792 794 796 798 798 799 800 801 802 804 807 808 810 811 813 814 816 818 818 819 821 822 823 825 826 827 828 829 831 832 833 835 836 838 838 839 840 841 843 844 844 845 845 846 846 846
709 712 716 718 721 725 731 735 734 740 755 765 771 777 774 765 758 755 756 756 756 757 759 763 766 766 767 768 769 770 771 771 772 772 773 773 774 775 775 776 775 774 775 776 777 778 779 782 786 789 792 794 796 796 798 798 798 799 801 803 805 808 810 811 813 815 816 817 819 819 820 821 822 823 825 826 827 828 830 831 832 833 835 836 838 839 840 841 842 843 844 844 845 845 846 846 847
715 717 716 715 720 727 739 747 735 729 746 759 762 773 777 765 757 760 760 759 759 759 760 764 767 769 771 772 773 774 775 775 775 776 777 777 777 778 779 778 777 778 779 780 782 783 784 785 788 792 794 796 797 798 799 799 799 800 801 805 808 809 811 813 814 816 817 818 819 820 820 821 822 824 825 826 828 829 830 831 832 834 835 837 838 839 840 842 842 844 844 844 845 845 846 846 847